Simultaneous Nadir Overpasses (SNOs) Predictions

Prediction of SNOs between AQUA and NOAA-19 Satellite Orbit:

Table of predicted SNOs for the next 14.0 days since TLE Epoch: 8/26/2016
Index Date (AQUA) Time (AQUA) Lat,Lon (AQUA) SZA (AQUA ) Date (NOAA-19) Time (NOAA-19) Lat,Lon (NOAA-19) SZA (NOAA-19 ) Distance(km) Time Diff (sec)
1 08/27/2016 22:02:31 -80.91, -10.44 106.59 08/27/2016 22:01:40 -80.91, -10.42 106.57 0.47 51
2 08/27/2016 22:51:57 80.89, 157.37 73.40 08/27/2016 22:52:34 80.89, 157.53 73.37 2.83 37
3 08/30/2016 03:36:16 80.92, 85.89 74.23 08/30/2016 03:35:36 80.91, 86.03 74.22 2.82 40
4 08/30/2016 04:25:42 -80.91,-106.25 105.80 08/30/2016 04:26:41 -80.90,-106.25 105.83 0.88 59
5 09/01/2016 09:10:00 -80.91,-177.39 105.02 09/01/2016 09:09:42 -80.91,-177.34 105.02 0.93 18
6 09/01/20
